[TLELIST] Archives

 

[list_settings.list_name] Current TLEs

August 27th 2010 PST

HST 1 20580U 90037B 10238.12944327 .00000409 00000-0 18407-4 0 6343 2 20580 028.4677 143.2399 0003640 221.6409 138.3923 15.01021892915271 ISS (ZARYA) 1 25544U 98067A 10239.47919226 .00012811 00000-0 10321-3 0 7806 2 25544 051.6453 225.8131 0007782 302.6469 199.6765 15.71295651674688 CXO 1 25867U 99040B 10240.45833333 -.00000194 00000-0 10000-3 0 5073 2 25867 067.5081 049.8128 8269870 275.4326 358.4181 00.37807117 6660 ____________________________________________________________________ These 2-Line ...Continue Reading

[list_settings.list_name] Current TLEs

August 26th 2010 PST

HST 1 20580U 90037B 10238.12944327 .00000409 00000-0 18407-4 0 6343 2 20580 028.4677 143.2399 0003640 221.6409 138.3923 15.01021892915271 ISS (ZARYA) 1 25544U 98067A 10238.51607682 .00011431 00000-0 92741-4 0 7747 2 25544 051.6455 230.7385 0007607 298.1815 152.4962 15.71265482674535 CXO 1 25867U 99040B 10237.83333333 -.00000251 00000-0 10000-3 0 5069 2 25867 067.5017 049.9467 8268393 275.4120 001.0704 00.37806964 6657 ____________________________________________________________________ These 2-Line ...Continue Reading

[list_settings.list_name] Current TLEs

August 25th 2010 PST

HST 1 20580U 90037B 10237.06559608 .00000414 00000-0 18802-4 0 6333 2 20580 028.4678 150.1867 0003683 210.6341 149.4005 15.01021395915114 ISS (ZARYA) 1 25544U 98067A 10237.50776661 .00009206 00000-0 75730-4 0 7677 2 25544 051.6451 235.8956 0007705 291.5133 211.7956 15.71233161674373 CXO 1 25867U 99040B 10237.83333333 -.00000251 00000-0 10000-3 0 5069 2 25867 067.5017 049.9467 8268393 275.4120 001.0704 00.37806964 6657 ____________________________________________________________________ These 2-Line ...Continue Reading

[list_settings.list_name] Current TLEs

August 24th 2010 PST

HST 1 20580U 90037B 10236.06823936 .00000378 00000-0 16038-4 0 6327 2 20580 028.4675 156.6932 0003745 200.6174 159.4256 15.01020704914961 ISS (ZARYA) 1 25544U 98067A 10236.36277919 .00008535 00000-0 70633-4 0 7594 2 25544 051.6448 241.7497 0007753 286.6760 215.7657 15.71207991674193 CXO 1 25867U 99040B 10235.16666667 -.00000384 00000-0 10000-3 0 5058 2 25867 067.4870 050.0635 8265524 275.4003 358.0927 00.37804202 6640 ____________________________________________________________________ These 2-Line ...Continue Reading

[list_settings.list_name] Current TLEs

August 23rd 2010 PST

HST 1 20580U 90037B 10234.07352707 .00000536 00000-0 28190-4 0 6316 2 20580 028.4679 169.7267 0003682 180.8207 179.2375 15.01020744914660 ISS (ZARYA) 1 25544U 98067A 10235.33437345 .00008664 00000-0 71677-4 0 7537 2 25544 051.6453 247.0084 0007708 282.1501 159.3961 15.71189938674038 CXO 1 25867U 99040B 10235.16666667 -.00000384 00000-0 10000-3 0 5058 2 25867 067.4870 050.0635 8265524 275.4003 358.0927 00.37804202 6640 ____________________________________________________________________ These 2-Line ...Continue Reading

[list_settings.list_name] Current TLEs

August 22nd 2010 PST

HST 1 20580U 90037B 10234.07352707 .00000536 00000-0 28190-4 0 6316 2 20580 028.4679 169.7267 0003682 180.8207 179.2375 15.01020744914660 ISS (ZARYA) 1 25544U 98067A 10234.51727728 .00008751 00000-0 72397-4 0 7473 2 25544 051.6456 251.1874 0007724 279.0451 217.6875 15.71175164673904 CXO 1 25867U 99040B 10235.16666667 -.00000384 00000-0 10000-3 0 5058 2 25867 067.4870 050.0635 8265524 275.4003 358.0927 00.37804202 6640 ____________________________________________________________________ These 2-Line ...Continue Reading

[list_settings.list_name] Current TLEs

August 21st 2010 PST

HST 1 20580U 90037B 10232.27828610 .00000536 00000-0 28190-4 0 6306 2 20580 028.4679 181.4439 0003682 161.7340 198.3475 15.01019415914394 ISS (ZARYA) 1 25544U 98067A 10233.50273037 .00008172 00000-0 67982-4 0 7415 2 25544 051.6454 256.3751 0007774 274.9697 239.4244 15.71154531673743 CXO 1 25867U 99040B 10232.54166667 -.00000580 00000-0 10000-3 0 5049 2 25867 067.4734 050.1685 8263024 275.3919 000.7791 00.37804443 6639 ____________________________________________________________________ These 2-Line ...Continue Reading

[list_settings.list_name] Current TLEs

August 20th 2010 PST

HST 1 20580U 90037B 10232.27828610 .00000536 00000-0 28190-4 0 6306 2 20580 028.4679 181.4439 0003682 161.7340 198.3475 15.01019415914394 ISS (ZARYA) 1 25544U 98067A 10232.35127753 .00082956 00000-0 64090-3 0 7340 2 25544 051.6445 262.2657 0008073 271.6854 205.5687 15.71152676673569 CXO 1 25867U 99040B 10232.54166667 -.00000580 00000-0 10000-3 0 5049 2 25867 067.4734 050.1685 8263024 275.3919 000.7791 00.37804443 6639 ____________________________________________________________________ These 2-Line ...Continue Reading

[list_settings.list_name] Current TLEs

August 19th 2010 PST

HST 1 20580U 90037B 10230.21707886 .00000508 00000-0 25988-4 0 6298 2 20580 028.4680 194.9063 0003678 141.1071 218.9781 15.01017702914088 ISS (ZARYA) 1 25544U 98067A 10231.39033991 .00012954 00000-0 10510-3 0 7331 2 25544 051.6446 267.1745 0007992 265.8609 172.6258 15.71112481673416 CXO 1 25867U 99040B 10229.87500000 -.00000713 00000-0 10000-3 0 5031 2 25867 067.4467 050.3194 8259461 275.3697 357.8043 00.37807776 6629 ____________________________________________________________________ These 2-Line ...Continue Reading

[list_settings.list_name] Current TLEs

August 18th 2010 PST

HST 1 20580U 90037B 10230.21707886 .00000508 00000-0 25988-4 0 6298 2 20580 028.4680 194.9063 0003678 141.1071 218.9781 15.01017702914088 ISS (ZARYA) 1 25544U 98067A 10230.51022750 .00013030 00000-0 10238-3 0 7282 2 25544 051.6464 271.6743 0005786 241.0597 255.1714 15.71891941673278 CXO 1 25867U 99040B 10229.87500000 -.00000713 00000-0 10000-3 0 5031 2 25867 067.4467 050.3194 8259461 275.3697 357.8043 00.37807776 6629 ____________________________________________________________________ These 2-Line ...Continue Reading
  • This mailing list is a public mailing list - anyone may join or leave, at any time.
  • This mailing list is announce-only.

International Space Station (ISS) / Hubble Space Telescope (HST) / Chandra X-Ray Observatory Orbital Data via EMAIL

Privacy Policy:

Private list